{"data":{"norad_id":41556,"intl_designator":"2016-033A","name":"ZIYUAN 3-02 (ZY 3-02)","alt_names":[],"object_type":"PAYLOAD","status":"ACTIVE","operator":null,"country":"PRC","launch_date":"2016-05-30","launch_site_code":"TAISC","launch_vehicle":null,"mission":null,"orbit_class":"UNKNOWN","rcs_meters":4.613,"size_class":null,"mass_kg":null,"dimensions":null,"purposes":["earth_obs"],"wikipedia_slug":null,"has_3d_model":false,"image_url":null,"decayed_at":null,"tle_current":{"epoch":"2026-05-25T04:03:43.123104Z","epoch_age_seconds":56904,"freshness":"FRESH","line1":"1 41556U 16033A   26145.16924911  .00005031  00000+0  22806-3 0  9994","line2":"2 41556  97.3837 221.3842 0013049  16.9435 343.2234 15.21215303554487","mean_motion":15.21215303,"eccentricity":0.0013049,"inclination_deg":97.3837,"raan_deg":221.3842,"arg_perigee_deg":16.9435,"mean_anomaly_deg":343.2234,"bstar":0.00022806,"rev_number":55448,"period_min":94.661156587116,"perigee_km":493.19558911281,"apogee_km":511.15182399478,"semimajor_km":6880.3107065538,"source":"CELESTRAK","updated_at":"2026-05-25T13:38:12.819918Z"}}}